Location: Napa Junction
(38.1874°N, 122.2508°W)
Time: 08:00:10
(UTC+00:00)

DELTA 2 R/B (1) - Visible Passes

Search period start: 05 December 2024 00:00
Search period end: 15 December 2024 00:00
Orbit: 788 x 800 km, 39.6° (Epoch: 04 December)

Date Brightness Start Highest point End Pass type
(mag) Time Alt. Az. Time Alt. Az. Time Alt. Az.
05 Dec 3.5 02:45:52 10° W 02:51:27 79° N 02:52:25 61° ENE visible
05 Dec 6.3 04:32:21 10° W 04:33:08 14° W 04:33:08 14° W visible
06 Dec 3.5 02:14:12 10° W 02:19:46 78° N 02:22:33 31° E visible
06 Dec 5.4 04:00:40 10° WNW 04:03:16 28° W 04:03:16 28° W visible
07 Dec 3.6 01:42:32 10° W 01:48:06 77° N 01:52:44 15° E visible
07 Dec 4.2 03:29:00 10° WNW 03:33:28 54° WSW 03:33:28 54° WSW visible
08 Dec 3.6 01:10:51 10° W 01:16:25 77° N 01:22:00 10° E visible
08 Dec 3.7 02:57:20 10° WNW 03:02:51 70° SSW 03:03:44 59° SSE visible
08 Dec 6.5 04:44:20 10° W 04:44:28 11° W 04:44:28 11° W visible
09 Dec 3.7 02:25:40 10° WNW 02:31:13 74° SSW 02:34:07 29° ESE visible
09 Dec 5.8 04:12:33 10° W 04:14:52 20° WSW 04:14:52 20° WSW visible
10 Dec 3.7 01:54:00 10° WNW 01:59:33 77° SSW 02:04:39 12° ESE visible
10 Dec 5.1 03:40:48 10° W 03:45:24 29° SW 03:45:24 29° SW visible
11 Dec 3.7 01:22:20 10° WNW 01:27:53 81° SSW 01:33:28 10° ESE visible
11 Dec 5.0 03:09:03 10° W 03:13:54 31° SSW 03:16:06 24° S visible
12 Dec 5.0 02:37:19 10° W 02:42:17 34° SSW 02:47:02 11° SSE visible
13 Dec 4.9 02:05:36 10° W 02:10:40 37° SSW 02:15:44 10° SE visible
14 Dec 4.9 01:33:53 10° W 01:39:02 40° SSW 01:44:11 10° SE visible
14 Dec 6.5 03:23:52 10° SW 03:24:31 10° SW 03:25:12 10° SW visible
